[[{"header":{"parameterUnit":"m.s-1","parameterCategory":1,"la1":30.2992,"la2":30.254,"lo1":-89.0895,"lo2":-89.0443,"dy":0.0025,"dx":0.0025,"nx":19,"ny":19,"refTime":"2026-03-17T21:00:00:Z","depth":0,"parameterNumber":2,"parameterNumberName":"U-component_of_WINDS"},"data":[0,0,0,2.2337,2.2339,2.2444,2.2445,2.2575,2.2576,0,0,0,0,0,0,0,0,0,0,0,2.2302,2.2303,2.2337,2.2339,2.2444,2.2445,2.2575,2.2576,0,0,0,0,0,0,0,0,0,0,0,2.2302,2.2302,2.2303,2.234,2.2444,2.2445,2.2575,2.2497,0,0,0,0,0,0,0,0,0,0,2.2396,2.2359,2.2302,2.2303,2.234,2.2444,2.2445,2.2494,2.2502,2.2525,0,2.2543,0,2.2562,2.2585,2.2585,0,0,0,2.2343,2.2352,2.2384,2.2303,2.2341,2.2444,2.2398,2.2498,2.2508,2.2536,2.2545,2.255,2.2564,2.2585,2.2586,2.2705,2.2705,0,0,2.2337,2.2319,2.2377,2.239,2.2372,2.2395,2.2401,2.2504,2.2513,2.2546,2.2554,2.2566,2.2586,2.2587,2.2704,2.2705,0,0,0,2.2318,2.2315,2.2344,2.2384,2.2403,2.2397,2.2405,2.2509,2.252,2.2555,2.2568,2.2587,2.2588,2.2704,2.2704,2.2705,0,0,0,2.2315,2.2304,2.2341,2.2332,2.2401,2.2457,2.2407,2.2513,2.2525,2.2567,2.2587,2.259,2.2703,2.2704,2.2704,2.2708,0,0,0,2.2296,2.2302,2.2315,2.233,2.2375,2.2456,2.2473,2.2516,2.2532,2.2585,2.259,2.2703,2.2704,2.2703,2.2707,2.2734,0,0,0,2.2272,2.2316,2.2315,2.2369,2.2374,2.2455,2.2472,2.2535,2.258,2.2588,2.2704,2.2704,2.2703,2.2706,2.2733,2.2752,2.2758,0,0,2.2317,2.232,2.2354,2.2356,2.2433,2.2441,2.2519,2.2578,2.2601,2.2669,2.2672,2.2705,2.2707,2.2733,2.2802,2.2807,0,0,0,2.2362,2.2385,2.2409,2.2451,2.2496,2.2536,2.2585,2.2607,2.2666,2.2631,2.2722,2.2725,2.2741,2.2751,2.2755,2.277,2.2708,2.2708,2.2708,2.2399,2.2424,2.248,2.2518,2.2558,2.2608,2.2643,2.2682,2.2697,2.2718,2.2738,2.2777,2.2788,2.2791,2.2806,2.2751,2.2751,2.2751,2.2751,2.2466,2.2503,2.2521,2.2581,2.2608,2.266,2.271,2.2719,2.2772,2.2764,2.2779,2.2767,2.2795,2.281,2.2752,2.2751,2.2751,2.2751,2.2751,2.2492,2.2514,2.2539,2.2602,2.2647,2.2685,2.2735,2.2758,2.2781,2.2796,2.282,2.282,2.2822,2.2806,2.2806,2.2806,2.2806,2.2806,2.2806,2.2508,2.2537,2.2575,2.2627,2.2657,2.2699,2.275,2.278,2.282,2.2833,2.2833,2.2845,2.2794,2.2779,2.2809,2.2808,2.2808,2.2808,2.2808,2.2565,2.2556,2.2614,2.2644,2.2707,2.2751,2.278,2.284,2.2868,2.2892,2.2901,2.2859,2.2865,2.2862,2.285,2.2896,2.2896,2.2896,2.2896,2.2586,2.2591,2.2656,2.2702,2.275,2.2782,2.2848,2.2889,2.2929,2.2949,2.2946,2.2933,2.2929,2.2937,2.2932,2.2921,2.2984,2.2984,2.2984,2.2622,2.2633,2.2684,2.2722,2.2773,2.2817,2.288,2.2932,2.2977,2.2988,2.2964,2.296,2.294,2.2932,2.2941,2.2933,2.2915,0,0]},{"header":{"parameterUnit":"m.s-1","parameterCategory":1,"la1":30.2992,"la2":30.254,"lo1":-89.0895,"lo2":-89.0443,"dy":0.0025,"dx":0.0025,"nx":19,"ny":19,"refTime":"2026-03-17T21:00:00:Z","depth":0,"parameterNumber":3,"parameterNumberName":"V-component_of_WINDS"},"data":[0,0,0,3.5078,3.5078,3.5118,3.5119,3.5157,3.5158,0,0,0,0,0,0,0,0,0,0,0,3.5061,3.5061,3.5078,3.5078,3.5118,3.5119,3.5157,3.5158,0,0,0,0,0,0,0,0,0,0,0,3.5061,3.5061,3.5061,3.5079,3.5118,3.5119,3.5157,3.5131,0,0,0,0,0,0,0,0,0,0,3.5094,3.5074,3.5061,3.5061,3.5079,3.5118,3.5119,3.513,3.5133,3.5135,0,3.5138,0,3.5148,3.516,3.516,0,0,0,3.5082,3.5072,3.5087,3.5061,3.5079,3.5118,3.5101,3.5131,3.5135,3.5138,3.5138,3.514,3.5149,3.516,3.516,3.5167,3.5166,0,0,3.5079,3.5065,3.5085,3.5089,3.5085,3.51,3.5102,3.5134,3.5131,3.5138,3.5141,3.515,3.516,3.516,3.5167,3.5167,0,0,0,3.5071,3.5063,3.5078,3.5087,3.5095,3.5101,3.5104,3.513,3.5136,3.5141,3.515,3.516,3.5161,3.5167,3.5167,3.5147,0,0,0,3.507,3.5058,3.5077,3.5068,3.5095,3.5114,3.5099,3.5134,3.5138,3.515,3.516,3.5161,3.5167,3.5167,3.5148,3.5139,0,0,0,3.506,3.5057,3.5061,3.5067,3.5084,3.5114,3.5122,3.5135,3.5143,3.516,3.5161,3.5167,3.5167,3.5148,3.5141,3.5136,0,0,0,3.5044,3.5043,3.5061,3.5062,3.5084,3.5102,3.5122,3.5136,3.5147,3.516,3.5167,3.5167,3.5149,3.5141,3.5137,3.5129,3.5125,0,0,3.5034,3.5041,3.5043,3.506,3.5071,3.5097,3.5104,3.5128,3.5142,3.5157,3.5157,3.5147,3.5141,3.5136,3.5108,3.5104,0,0,0,3.5034,3.5035,3.5041,3.5053,3.5072,3.5087,3.5112,3.512,3.5134,3.5148,3.5145,3.5142,3.514,3.5137,3.5134,3.5132,3.5165,3.5165,3.5165,3.4997,3.5017,3.502,3.5044,3.5054,3.508,3.5089,3.5105,3.5121,3.512,3.5124,3.5105,3.5101,3.5098,3.5097,3.5122,3.5122,3.5122,3.5122,3.4983,3.4987,3.5008,3.5019,3.5038,3.5047,3.5071,3.5081,3.5091,3.5103,3.5102,3.5114,3.5094,3.5093,3.5121,3.5121,3.5121,3.5121,3.5121,3.4961,3.4966,3.4977,3.4995,3.5006,3.5029,3.5038,3.5055,3.5071,3.507,3.5075,3.5076,3.5077,3.5072,3.5072,3.5071,3.5071,3.5071,3.5071,3.4932,3.4946,3.4952,3.4972,3.4981,3.4995,3.5019,3.5028,3.5041,3.5053,3.5053,3.5067,3.5089,3.5094,3.507,3.507,3.5071,3.5071,3.5071,3.4909,3.4917,3.4926,3.4935,3.4959,3.4968,3.499,3.5006,3.5015,3.5018,3.5033,3.5047,3.5054,3.5057,3.5061,3.503,3.503,3.503,3.503,3.489,3.4896,3.4908,3.4921,3.4936,3.4957,3.4963,3.4982,3.5001,3.5008,3.5015,3.5022,3.5024,3.503,3.5033,3.5037,3.5001,3.5001,3.5001,3.4876,3.4884,3.4888,3.4909,3.4928,3.4944,3.4951,3.4963,3.4987,3.5,3.5013,3.5014,3.5025,3.5028,3.5041,3.5045,3.5053,0,0]}]]